Weather Roundup
Issued by NWS

Home | Current Version | Previous Version | Text Only | Print | Product List | Glossary On
Versions: 1 2 3 4 5 6 7 8 9 10 11 12 13 14 15 16 17 18 19 20 21 22 23 24 25 26 27 28 29 30 31 32 33 34 35 36 37 38 39 40 41 42 43 44 45 46 47 48 49 50
000
NZUS93 KARX 250259
HRRWXR

CURRENT HOURLY OBSERVATIONS ACROSS
MUCH OF THE UPPER MISSISSIPPI VALLEY
NATIONAL WEATHER SERVICE LA CROSSE WI
1000 PM CDT THU JUL 24 2014


...SOUTHEAST MINNESOTA...


CITY           SKY/WX    TMP DP  RH WIND       PRES   REMARKS
ROCHESTER      CLEAR     65  58  78 S5        29.99R
ROCHESTER/MAYO FAIR      70  57  63 SE5       29.98
WINONA         CLEAR     70  61  73 CALM      29.96R
AUSTIN         CLEAR     64  57  77 CALM      29.97R
ALBERT LEA     CLEAR     66  57  72 S5        29.97R
DODGE CENTER   CLEAR     66  61  82 SW3       29.98R
PRESTON        CLEAR     65  63  91 CALM      29.99R
OWATONNA       CLEAR     64  57  77 CALM      29.97R
FARIBAULT      CLEAR     70  55  60 CALM      29.97R
$$

...ELSEWHERE IN MINNESOTA...


CITY           SKY/WX    TMP DP  RH WIND       PRES   REMARKS
MINNEAPOLIS    MOCLDY    74  60  61 SW8       29.95R
INTNL FALLS    MOCLDY    61  58  90 SE5       29.89F
DULUTH         CLOUDY    68  58  70 S6        29.95F
RED WING       PTCLDY    68  61  77 CALM      29.95R
REDWOOD FALLS  CLOUDY    67  61  81 E7        29.91R
MANKATO        MOCLDY    66  57  72 SE3       29.96R
WORTHINGTON    CLEAR     64  61  88 S7        29.90F
FAIRMONT       CLEAR     63  55  77 S6        29.92R
$$

...SOUTHWEST WISCONSIN...


CITY           SKY/WX    TMP DP  RH WIND       PRES   REMARKS
LA CROSSE      CLEAR     72  60  66 SE7       29.96R
PRAIRIE DU CHI MOCLDY    72  57  60 SE6       29.96R
BOSCOBEL       MOCLDY    71  58  63 CALM      29.98R
LONE ROCK      NOT AVBL
PLATTEVILLE    MOCLDY    66  59  78 SE8       30.01S
FORT MC COY    CLEAR     65  57  73 CALM      29.99S
VIROQUA        FAIR      66  59  79 SE6       30.00S
WIS DELLS      PTCLDY    64  55  71 S3        30.01R
$$

...ELSEWHERE IN WISCONSIN...


CITY           SKY/WX    TMP DP  RH WIND       PRES   REMARKS
MILWAUKEE      MOCLDY    62  45  53 S9        30.04F
MADISON        PTCLDY    70  57  63 S7        30.02R
GREEN BAY      PTCLDY    64  46  52 S8        30.02S
EAU CLAIRE     NOT AVBL
BLACK RVR FLS  CLOUDY    65  59  81 CALM      29.98R
MEDFORD        PTCLDY    63  56  79 SE3       30.01R
WAUSAU         CLOUDY    68  55  63 E3        29.99R
WIS RAPIDS     MOCLDY    67  55  65 S3        30.02R
MARSHFIELD     PTCLDY    65  58  78 S3        30.00R
RICE LAKE      CLEAR     68  57  69 SE3       29.99R
$$

...NORTHEAST IOWA...


CITY           SKY/WX    TMP DP  RH WIND       PRES   REMARKS
WATERLOO       CLEAR     69  60  73 S14       29.94R
DUBUQUE        MOCLDY    65  60  84 S12       30.00F
DECORAH        PTCLDY    66  59  77 CALM      29.96R
MASON CITY     CLEAR     62  61  96 S6        29.96R
CHARLES CITY   CLEAR     66  61  82 S7        29.95R
OELWEIN        CLEAR     66  61  82 S12       29.95F
$$

...ELSEWHERE IN IOWA...


CITY           SKY/WX    TMP DP  RH WIND       PRES   REMARKS
DES MOINES     MOCLDY    72  60  66 S13G22    29.90R
IOWA CITY      MOCLDY    67  60  78 S7        30.00R
FORT DODGE     PTCLDY    66  61  82 S6        29.93R
MARSHALLTOWN   CLEAR     64  62  93 E5        29.95R
CEDAR RAPIDS   MOCLDY    68  58  70 S7        29.97S
$$

...NORTHERN ILLINOIS...


CITY           SKY/WX    TMP DP  RH WIND       PRES   REMARKS
CHICAGO-OHARE  MOCLDY    64  43  46 SE10      30.06S
DUPAGE         MOCLDY    64  46  52 E6        30.06S
CHICAGO-MIDWAY MOCLDY    67  50  54 SE7       30.07F
MOLINE         CLOUDY    67  57  70 SE6       30.01F
ROCKFORD       MOCLDY    65  56  72 S3        30.07R
STERLING       CLOUDY    66  55  68 S3        30.05R
PEORIA         CLOUDY    71  54  54 SE3       30.05F
$$

NOTE: "FAIR" INDICATES FEW OR NO CLOUDS BELOW 12,000 FEET WITH NO
SIGNIFICANT WEATHER AND/OR OBSTRUCTIONS TO VISIBILITY. WIND
SPEEDS ARE IN MILES-PER-HOUR.



USA.gov is the U.S. government's official web portal to all federal, state and local government web resources and services.